[[{"header":{"parameterUnit":"m.s-1","parameterCategory":1,"la1":30.2991,"la2":30.254,"lo1":-89.0895,"lo2":-89.0444,"dy":0.0017,"dx":0.0017,"nx":28,"ny":28,"refTime":"2025-04-05T03:00:00:Z","depth":0,"parameterNumber":2,"parameterNumberName":"U-component_of_WINDS"},"data":[0,0,0,0,0,0,0,0,0,0,0,0,0,0,0,0,0,0,0,0,0,0,0,0,0,0,0,0,0,0,0,0,0,0,0,0,0,0,0,0,0,0,0,0,0,0,0,0,0,0,0,0,0,0,0,0,0,0,2.0849,2.0849,0,2.0877,2.0877,2.0878,2.0824,2.0823,2.0821,2.0819,2.085,2.0853,2.0855,0,0,0,0,0,0,0,0,0,0,0,0,0,2.075,2.0752,2.0849,2.0849,2.0849,2.0877,2.0877,2.0878,2.0825,2.0823,2.082,2.0818,2.085,2.0852,2.0855,0,0,0,0,0,0,0,0,0,0,0,0,0,2.0787,2.0753,2.0849,2.0826,2.0824,2.0877,2.0877,2.0878,2.0825,2.0822,2.082,2.0817,2.0849,2.0852,2.0856,2.0932,0,0,2.0867,2.0869,0,0,0,0,0,0,0,0,2.0785,2.0791,2.0829,2.0828,2.0826,2.0844,2.0854,2.0896,2.0826,2.0825,2.0819,2.0816,2.0851,2.0854,2.0865,2.0933,2.0935,2.0868,2.087,2.0871,2.0872,0,0,0,0,0,0,0,2.0782,2.0789,2.086,2.083,2.0828,2.0815,2.0817,2.0862,2.0852,2.0825,2.0821,2.0825,2.0849,2.0862,2.0866,2.0935,2.0867,2.0871,2.0873,2.0874,2.1066,2.1069,0,0,0,0,0,0,2.0782,2.0787,2.0859,2.0861,2.0798,2.0819,2.0822,2.0841,2.0852,2.0851,2.0827,2.0822,2.0857,2.0861,2.0866,2.0955,2.0871,2.0875,2.0877,2.1063,2.1067,2.107,0,0,0,0,0,0,2.0781,2.0789,2.0858,2.0823,2.0831,2.0823,2.0846,2.0843,2.0855,2.0854,2.0852,2.0842,2.0855,2.0861,2.0916,2.0956,2.0877,2.088,2.106,2.1064,2.1068,2.1134,0,0,0,0,0,0,2.0778,2.0789,2.0818,2.0824,2.0833,2.0906,2.0848,2.0846,2.0862,2.0856,2.0867,2.0866,2.0853,2.091,2.0919,2.0959,2.0883,2.1056,2.1062,2.1067,2.1129,2.114,2.1151,0,0,0,0,0,2.0775,2.0836,2.0819,2.0828,2.0868,2.0909,2.0914,2.0897,2.0865,2.0894,2.0893,2.0865,2.095,2.0916,2.0926,2.0968,2.1054,2.106,2.1066,2.1124,2.1138,2.115,0,0,0,0,0,0,2.0836,2.0836,2.0818,2.0883,2.0896,2.09,2.0936,2.0914,2.0936,2.093,2.0909,2.0912,2.0971,2.0975,2.0937,2.1041,2.0996,2.1005,2.1037,2.105,2.1061,2.1059,2.0886,0,0,0,0,0,2.0856,2.0889,2.0888,2.0946,2.0953,2.0943,2.096,2.0946,2.0959,2.0965,2.0967,2.0981,2.1011,2.1031,2.1058,2.1129,2.113,2.1162,2.1173,2.1182,2.119,2.1227,2.1241,2.1091,2.1091,2.1091,0,0,2.09,2.0905,2.0927,2.0958,2.0966,2.1,2.0948,2.0987,2.1012,2.0971,2.1022,2.1024,2.1038,2.1101,2.1129,2.1106,2.1232,2.119,2.1198,2.1201,2.1235,2.1249,2.1262,2.1095,2.1094,2.1094,0,0,2.0997,2.1004,2.1052,2.1061,2.1074,2.1067,2.1079,2.1086,2.1085,2.1136,2.1105,2.1135,2.1187,2.1198,2.121,2.131,2.1286,2.132,2.1377,2.1413,2.1425,2.1435,2.147,2.1483,2.1327,2.1327,2.1328,0,2.105,2.11,2.108,2.112,2.1135,2.1098,2.1147,2.1157,2.1178,2.1189,2.1163,2.1226,2.1233,2.1298,2.1322,2.1333,2.1346,2.1318,2.1425,2.1435,2.1444,2.1477,2.1491,2.1331,2.1331,2.1331,2.133,0,2.1164,2.1199,2.1236,2.1257,2.1275,2.132,2.1307,2.1328,2.1312,2.1308,2.136,2.1367,2.1394,2.1408,2.1394,2.1471,2.1456,2.1428,2.1382,2.1463,2.1494,2.1506,2.1337,2.1336,2.1334,2.1333,0,0,2.1301,2.1309,2.1323,2.1331,2.1342,2.1369,2.1412,2.1437,2.1456,2.1472,2.1507,2.155,2.1524,2.1538,2.1524,2.1556,2.1634,2.1524,2.1524,2.1543,2.1717,2.1738,2.1753,2.1617,2.162,2.1622,2.1716,0,2.1396,2.1469,2.1452,2.1523,2.1555,2.152,2.1557,2.1568,2.1565,2.1591,2.1588,2.1619,2.1582,2.159,2.162,2.1618,2.1668,2.1611,2.165,2.1651,2.1647,2.1769,2.1792,2.1881,2.1728,2.173,2.1732,0,2.1518,2.1537,2.1612,2.1616,2.1629,2.1662,2.1684,2.171,2.1721,2.1717,2.1732,2.1712,2.1753,2.1707,2.1764,2.1726,2.174,2.1742,2.1745,2.1748,2.1696,2.1775,2.1909,2.1922,2.175,2.1749,2.1748,0,2.1609,2.1654,2.1704,2.1712,2.172,2.1744,2.1748,2.1756,2.1773,2.1792,2.1802,2.1826,2.184,2.1859,2.1846,2.1813,2.1905,2.1858,2.1902,2.1902,2.1923,2.1922,2.206,2.1933,2.1933,2.1933,2.1933,0,2.1717,2.1764,2.1745,2.1776,2.1827,2.1807,2.1858,2.1858,2.1866,2.1896,2.1868,2.1897,2.1878,2.1905,2.1895,2.1944,2.195,2.1948,2.1944,2.195,2.195,2.1959,2.1953,2.1936,2.1936,2.1935,2.1934,0,2.1828,2.1817,2.1869,2.1871,2.1873,2.1911,2.1912,2.1941,2.1935,2.1974,2.1982,2.1973,2.2004,2.1992,2.2026,2.2019,2.208,2.2069,2.2076,2.2073,2.2118,2.2114,2.2267,2.2286,2.2147,2.2149,2.215,0,2.1898,2.1933,2.1938,2.1956,2.1962,2.1991,2.2007,2.1989,2.2007,2.2022,2.2048,2.2076,2.2098,2.2148,2.2145,2.217,2.2159,2.2211,2.2163,2.2167,2.2159,2.2157,2.216,2.2221,2.2223,2.2224,2.2225,0,2.2022,2.2015,2.2039,2.2061,2.2081,2.2097,2.2111,2.2128,2.211,2.2131,2.2162,2.2178,2.2211,2.2239,2.2261,2.2266,2.2243,2.224,2.2251,2.2257,2.226,2.2258,2.2102,2.2237,2.2235,2.2235,2.2234,2.2233,2.2114,2.2143,2.2151,2.2179,2.2187,2.2201,2.2227,2.2225,2.225,2.2274,2.2262,2.2297,2.2307,2.2334,2.2341,2.2369,2.2349,2.2366,2.237,2.2374,2.238,2.2256,2.2373,2.2373,2.2372,2.2372,2.2372,0,2.2236,2.224,2.2265,2.2285,2.2307,2.2282,2.2296,2.2316,2.2347,2.2358,2.2379,2.2414,2.244,2.2439,2.2464,2.2486,2.2476,2.2493,2.2491,2.2492,2.2397,2.2384,2.2501,2.2501,2.2501,2.2501,2.2501,2.2501,2.2303,2.235,2.2344,2.2395,2.2398,2.2432,2.2442,2.2454,2.2462,2.2502,2.2524,2.2522,2.2528,2.2553,2.2576,2.2575,2.2585,2.2606,2.2601,2.2512,2.2499,2.2487,2.2475,2.2609,2.2609,2.2694,2.2695,2.2696]},{"header":{"parameterUnit":"m.s-1","parameterCategory":1,"la1":30.2991,"la2":30.254,"lo1":-89.0895,"lo2":-89.0444,"dy":0.0017,"dx":0.0017,"nx":28,"ny":28,"refTime":"2025-04-05T03:00:00:Z","depth":0,"parameterNumber":3,"parameterNumberName":"V-component_of_WINDS"},"data":[0,0,0,0,0,0,0,0,0,0,0,0,0,0,0,0,0,0,0,0,0,0,0,0,0,0,0,0,0,0,0,0,0,0,0,0,0,0,0,0,0,0,0,0,0,0,0,0,0,0,0,0,0,0,0,0,0,0,8.985,8.9852,0,8.9973,8.9974,8.9975,8.9903,8.99,8.9896,8.9893,9.001,9.0016,9.0022,0,0,0,0,0,0,0,0,0,0,0,0,0,8.9545,8.9551,8.985,8.9852,8.9853,8.9972,8.9974,8.9976,8.9904,8.99,8.9896,8.9892,9.0008,9.0015,9.0023,0,0,0,0,0,0,0,0,0,0,0,0,0,8.9673,8.9553,8.985,8.9832,8.9832,8.9972,8.9974,8.9976,8.9905,8.99,8.9894,8.989,9.0005,9.0014,9.0024,9.0186,0,0,9.0053,9.0057,0,0,0,0,0,0,0,0,8.9666,8.9685,8.9833,8.9834,8.9834,8.9918,8.9909,9.0046,8.9906,8.9877,8.9893,8.9887,8.9983,8.9994,9.0028,9.0191,9.0196,9.0053,9.0059,9.0063,9.0066,0,0,0,0,0,0,0,8.9657,8.9679,8.9898,8.9835,8.9836,8.9815,8.9827,8.9935,8.9957,8.9879,8.9874,8.989,8.9982,9.0019,9.003,9.0198,9.0053,9.0062,9.0067,9.0071,9.0498,9.0504,0,0,0,0,0,0,8.9651,8.9672,8.9894,8.9902,8.9736,8.9825,8.9839,8.9896,8.9956,8.996,8.9894,8.9886,9.0005,9.0019,9.0034,9.0227,9.0063,9.0072,9.0077,9.0493,9.05,9.0506,0,0,0,0,0,0,8.9645,8.9672,8.989,8.9786,8.9812,8.9835,8.99,8.9901,8.9938,8.9967,8.997,8.9929,9.0001,9.002,9.0149,9.023,9.0076,9.0085,9.0486,9.0495,9.0503,9.0615,0,0,0,0,0,0,8.9637,8.967,8.9734,8.9788,8.9818,9.0006,8.9905,8.9907,8.9955,8.9946,9.0,9.0004,8.9999,9.0135,9.0158,9.024,9.0092,9.0479,9.049,9.05,9.0604,9.0626,9.0645,0,0,0,0,0,8.9626,8.9759,8.9738,8.9765,8.9899,9.0011,9.0027,9.0021,8.9962,9.0025,9.0044,9.0003,9.0217,9.0149,9.0174,9.026,9.0474,9.0487,9.0499,9.0595,9.0622,9.0644,0,0,0,0,0,0,8.9711,8.9766,8.9743,8.9898,8.9951,8.9998,9.0078,9.005,9.0118,9.0106,9.0092,9.0105,9.0239,9.0262,9.0185,9.0419,9.0336,9.0354,9.04,9.0426,9.0446,9.0437,9.01,0,0,0,0,0,8.9748,8.9838,8.9879,9.0012,9.004,9.0055,9.0103,9.0094,9.0146,9.0167,9.0195,9.0245,9.0324,9.0376,9.045,9.0607,9.0616,9.0678,9.0699,9.0715,9.0731,9.0815,9.0843,9.0548,9.0548,9.0547,0,0,8.9825,8.9866,8.9923,9.003,9.007,9.0159,9.0074,9.0172,9.0238,9.0181,9.0305,9.0327,9.0382,9.0525,9.059,9.0549,9.0815,9.0732,9.0745,9.0752,9.0831,9.0859,9.0884,9.0556,9.0555,9.0553,0,0,9.0012,9.0053,9.0168,9.021,9.0272,9.0281,9.0308,9.0361,9.0374,9.0499,9.0458,9.0534,9.067,9.0711,9.0749,9.095,9.0914,9.0974,9.1082,9.1164,9.1187,9.1207,9.1279,9.1304,9.099,9.0991,9.0991,0,9.0099,9.0236,9.0229,9.0332,9.0379,9.0335,9.0449,9.0489,9.0571,9.0603,9.0557,9.0726,9.076,9.0912,9.0961,9.0994,9.1023,9.0968,9.1185,9.1205,9.1224,9.1292,9.1319,9.0998,9.0997,9.0996,9.0995,0,9.0339,9.0435,9.0519,9.0603,9.066,9.0768,9.0774,9.0832,9.0817,9.083,9.0956,9.0995,9.1076,9.1111,9.1097,9.1261,9.1234,9.1186,9.1102,9.1259,9.1323,9.1349,9.1007,9.1005,9.1003,9.1001,0,0,9.0583,9.0663,9.0694,9.0731,9.0796,9.0868,9.0972,9.1054,9.1103,9.116,9.1246,9.1363,9.1319,9.1363,9.1352,9.1424,9.158,9.1367,9.1368,9.1405,9.1763,9.1799,9.1829,9.1557,9.1562,9.1566,9.1758,0,9.0774,9.0961,9.0957,9.1129,9.1216,9.1174,9.1265,9.1313,9.1327,9.14,9.1415,9.1498,9.1434,9.146,9.153,9.1547,9.1652,9.1533,9.1635,9.1639,9.1623,9.1862,9.19,9.208,9.1783,9.1787,9.179,0,9.1021,9.1091,9.1272,9.1324,9.136,9.1442,9.1517,9.1588,9.164,9.1645,9.1695,9.1673,9.1776,9.1689,9.183,9.1749,9.179,9.1805,9.1812,9.1821,9.1724,9.1878,9.2137,9.2164,9.1829,9.1826,9.1823,0,9.1181,9.1319,9.1445,9.1478,9.1542,9.16,9.1629,9.1677,9.1726,9.179,9.1821,9.1895,9.1935,9.1992,9.1989,9.1927,9.2132,9.2045,9.2138,9.2138,9.2183,9.218,9.2453,9.221,9.2209,9.2209,9.2208,0,9.1394,9.1507,9.1518,9.1596,9.1719,9.1713,9.1834,9.1857,9.19,9.1979,9.1946,9.202,9.2012,9.2086,9.2085,9.2201,9.2219,9.2225,9.2223,9.2228,9.2228,9.2255,9.2242,9.2216,9.2214,9.2213,9.2212,0,9.1593,9.1606,9.1741,9.1791,9.1806,9.1895,9.1936,9.2008,9.202,9.212,9.2143,9.216,9.2246,9.2249,9.2347,9.2345,9.2487,9.2471,9.2471,9.2468,9.256,9.2552,9.286,9.29,9.2631,9.2633,9.2636,0,9.1729,9.1815,9.1875,9.1927,9.196,9.2044,9.2095,9.2091,9.2144,9.2211,9.2274,9.2357,9.2424,9.2562,9.2581,9.2655,9.2641,9.2744,9.2652,9.2654,9.2642,9.2637,9.2646,9.2762,9.2765,9.2767,9.2769,0,9.1968,9.197,9.2046,9.2125,9.2187,9.2248,9.2304,9.2348,9.2349,9.2411,9.25,9.2551,9.2652,9.2734,9.2806,9.2832,9.2801,9.2798,9.2824,9.283,9.2826,9.2829,9.252,9.2791,9.2789,9.2787,9.2786,9.2785,9.2139,9.2214,9.2268,9.2354,9.2396,9.245,9.252,9.2541,9.2616,9.27,9.2692,9.279,9.2838,9.2932,9.2964,9.3039,9.3003,9.304,9.3049,9.3059,9.3069,9.2814,9.3052,9.3051,9.3051,9.305,9.305,0,9.2376,9.2409,9.2488,9.257,9.2637,9.2604,9.2664,9.2721,9.2809,9.2859,9.2925,9.3026,9.3106,9.3132,9.3208,9.3263,9.3251,9.3283,9.3279,9.3286,9.3096,9.3067,9.3292,9.3292,9.3292,9.3292,9.3292,9.3292,9.2508,9.2632,9.264,9.2784,9.2815,9.2914,9.2951,9.2999,9.3038,9.3154,9.3221,9.3238,9.3278,9.3357,9.3428,9.3433,9.3462,9.3501,9.3501,9.3323,9.3299,9.3276,9.3248,9.3508,9.3508,9.3684,9.3685,9.3687]}]]